Wetbulb
66.08 66.08 65.68 65.09 66.59 67.97 68.82 70.60 71.72 70.78 70.65 71.79 71.94 71.68 71.95 71.74 71.86 71.49 71.89 71.17 71.35 71.43 71.60 71.27 70.96 69.70 70.25 69.41 69.20 69.67 68.86 70.62
65.74 65.29 65.32 65.14 65.90 67.31 68.42 69.64 70.82 71.06 70.49 70.66 71.18 70.77 71.34 70.70 71.05 71.64 71.09 70.81 71.15 71.32 71.71 72.30 72.20 71.69 70.59 70.06 70.29 70.61 70.34 69.66
66.40 65.54 66.05 66.16 65.03 66.84 68.16 69.44 70.18 70.60 70.46 69.94 70.51 70.11 70.41 70.56 70.85 71.26 71.04 70.56 70.86 71.56 71.80 72.16 72.41 72.73 71.85 71.14 70.96 71.10 71.01 70.56
66.76 66.27 65.94 66.32 66.57 66.20 67.67 68.39 69.47 70.08 69.70 69.57 69.40 70.11 70.17 70.50 70.66 70.82 71.34 70.91 70.90 70.56 70.98 71.51 72.03 72.38 72.08 71.60 71.47 71.70 71.11 70.59
66.71 67.46 67.51 68.27 67.92 67.94 67.16 67.87 68.87 69.21 69.52 69.38 69.04 69.27 69.35 69.36 69.67 70.88 71.04 71.37 71.36 71.04 71.02 71.44 72.12 72.53 72.68 72.47 72.10 71.80 70.74 70.05
67.44 68.20 68.49 69.31 69.50 68.68 68.24 66.83 67.47 68.29 68.69 68.78 68.47 68.65 69.00 68.91 69.41 69.78 70.07 70.46 71.01 71.12 71.14 71.76 72.37 72.48 72.39 72.07 71.35 70.06 69.97 69.19
67.49 68.31 68.54 69.07 69.40 69.54 68.62 67.60 66.62 67.55 68.19 68.06 68.32 69.17 68.25 68.63 68.92 69.23 69.91 70.03 70.22 70.96 71.20 71.91 72.76 72.30 72.10 71.67 71.30 70.11 69.38 69.11
67.12 67.69 68.48 68.92 69.17 69.66 69.62 68.81 68.35 68.19 67.36 67.46 67.19 67.24 67.46 68.00 68.22 68.58 69.68 69.94 70.39 71.42 71.57 71.91 72.32 72.07 71.79 71.57 70.87 70.06 68.82 69.04
68.09 68.26 68.16 67.82 68.04 68.52 68.82 68.65 70.45 68.22 65.97 64.91 65.32 64.84 66.52 67.44 67.98 68.81 69.37 69.82 70.25 71.17 71.04 71.35 71.94 71.64 72.19 72.15 70.53 66.81 65.62 68.65
67.44 68.14 68.63 68.08 67.80 67.94 68.48 68.65 69.97 68.57 67.59 68.11 67.51 67.36 67.50 68.22 68.85 69.35 69.22 69.67 70.43 70.77 71.50 71.63 72.58 71.17 72.25 70.71 67.02 65.27 65.23 65.61
67.12 67.58 68.30 68.52 67.53 67.58 68.09 68.99 69.60 69.32 69.73 68.25 68.49 68.03 68.16 67.07 67.69 68.22 69.08 69.15 69.68 70.79 71.86 72.07 72.46 71.91 71.22 69.98 65.75 65.66 63.93 64.54
65.36 66.55 67.66 68.58 68.55 68.59 68.92 69.27 69.34 69.23 69.93 68.58 68.56 66.66 65.83 67.20 68.70 69.05 69.42 70.41 70.09 70.62 71.60 72.20 73.10 71.53 71.69 69.79 68.05 65.73 65.13 63.52
64.97 65.79 66.51 67.06 67.32 68.33 68.45 69.41 69.02 68.65 69.16 68.97 67.21 68.24 67.82 68.21 68.68 69.36 70.15 70.60 71.20 70.82 71.11 71.67 71.87 71.02 71.32 68.66 68.39 66.79 67.33 66.07
65.12 66.85 68.36 68.73 69.24 67.60 66.29 67.21 68.06 68.00 67.83 68.01 68.52 68.51 68.03 67.01 68.04 67.93 68.01 68.85 69.73 70.09 70.20 70.31 70.07 70.96 69.76 68.71 68.48 66.68 67.80 66.22
65.30 65.85 67.01 67.89 68.42 69.17 69.54 66.23 66.32 67.36 67.46 67.49 67.73 68.11 68.64 68.65 69.17 69.04 69.31 69.36 69.50 70.27 70.65 70.61 70.37 68.84 67.98 68.48 66.67 66.27 67.24 66.88
63.29 64.05 65.48 66.42 66.76 67.62 68.95 70.07 67.42 65.91 67.15 67.72 68.52 69.25 68.43 68.69 69.32 69.66 69.71 69.83 69.32 70.19 70.42 70.46 69.48 68.68 67.24 68.05 66.65 66.69 68.12 66.44
62.86 63.67 64.04 65.15 65.32 66.01 65.94 68.19 67.00 67.61 68.05 68.73 69.26 69.10 68.58 67.42 67.72 67.24 66.45 67.38 67.40 67.76 68.75 68.45 68.12 66.86 66.32 65.77 66.38 66.45 65.00 64.09
63.25 63.36 63.45 65.40 65.48 65.46 65.66 66.06 65.88 66.26 66.10 67.20 67.52 67.34 66.98 66.79 65.19 66.73 66.38 67.67 68.21 68.33 68.19 67.89 66.70 66.35 66.19 64.01 61.90 62.84 61.53 59.89
62.41 63.62 62.63 66.11 67.00 66.09 65.73 64.95 64.51 64.70 65.11 65.22 66.17 65.95 65.77 65.59 65.26 66.32 67.06 67.53 67.33 65.14 63.74 63.11 63.02 63.27 62.31 60.07 59.75 60.06 59.36 58.14
62.72 63.11 63.72 64.74 65.54 64.89 65.12 65.88 64.47 64.31 64.32 63.84 64.07 65.43 65.08 65.32 65.37 65.25 64.42 63.76 62.88 60.43 59.74 59.05 58.70 58.18 59.12 57.15 56.40 56.39 55.81 54.97
MSLP
1012.54 1012.94 1013.11 1013.61 1014.35 1015.03 1015.27 1015.50 1015.74 1015.79 1015.98 1016.47 1016.64 1016.82 1016.99 1017.24 1017.42 1017.50 1017.63 1017.76 1017.90 1017.88 1017.92 1018.00 1018.19 1018.52 1018.34 1018.54 1018.51 1018.26 1018.22 1017.99
1012.08 1012.50 1012.91 1013.44 1013.94 1014.44 1014.87 1015.16 1015.51 1015.89 1016.02 1016.34 1016.47 1016.70 1016.91 1016.99 1017.15 1017.44 1017.53 1017.50 1017.53 1017.55 1017.42 1017.55 1017.84 1017.84 1018.08 1018.33 1018.24 1018.32 1018.27 1018.18
1011.64 1011.94 1012.59 1013.28 1013.62 1014.01 1014.38 1014.86 1015.29 1015.63 1016.09 1016.12 1016.35 1016.43 1016.64 1016.66 1016.97 1017.20 1017.26 1017.29 1017.43 1017.52 1017.52 1017.54 1017.54 1017.58 1017.60 1017.70 1017.84 1018.02 1017.99 1017.97
1011.31 1011.80 1012.12 1012.72 1013.01 1013.41 1014.09 1014.61 1015.16 1015.47 1015.70 1015.96 1016.09 1016.32 1016.45 1016.76 1016.76 1016.85 1017.20 1017.24 1017.38 1017.42 1017.46 1017.47 1017.44 1017.47 1017.39 1017.37 1017.27 1017.39 1017.45 1017.48
1010.92 1011.32 1011.71 1012.07 1012.42 1013.04 1013.71 1014.28 1014.82 1015.31 1015.54 1015.82 1016.02 1016.19 1016.41 1016.57 1016.66 1016.96 1017.06 1017.09 1017.20 1017.34 1017.25 1017.25 1017.21 1017.38 1017.50 1017.40 1017.34 1017.37 1017.33 1017.25
1010.53 1010.98 1011.44 1011.82 1012.15 1012.58 1013.37 1013.82 1014.30 1015.01 1015.37 1015.58 1015.83 1016.06 1016.22 1016.27 1016.38 1016.48 1016.70 1016.93 1017.17 1017.24 1017.04 1016.93 1017.03 1017.30 1017.26 1017.22 1017.28 1017.18 1017.13 1017.09
1010.03 1010.52 1011.08 1011.49 1011.93 1012.45 1013.10 1013.58 1013.83 1014.40 1015.02 1015.39 1015.67 1015.85 1016.16 1016.05 1016.19 1016.20 1016.29 1016.60 1016.79 1017.06 1016.79 1016.63 1017.03 1016.99 1017.01 1017.01 1016.99 1017.19 1016.97 1016.94
1009.36 1010.02 1010.62 1011.17 1011.85 1012.41 1012.85 1013.35 1013.82 1014.32 1014.67 1015.08 1015.35 1015.55 1015.61 1015.75 1015.81 1015.87 1016.02 1015.98 1016.22 1016.55 1016.39 1016.48 1016.50 1016.41 1016.55 1016.79 1017.10 1017.15 1017.43 1017.11
1008.94 1009.62 1010.30 1010.86 1011.41 1011.88 1012.34 1012.74 1012.98 1013.55 1014.10 1014.53 1014.75 1014.48 1014.67 1014.87 1014.90 1014.89 1014.92 1015.14 1015.46 1015.78 1015.65 1015.58 1015.81 1015.91 1015.85 1016.44 1017.19 1017.81 1017.98 1017.99
1008.85 1009.29 1009.58 1009.89 1010.17 1010.61 1011.24 1011.94 1012.53 1013.08 1013.52 1013.64 1013.72 1013.94 1013.97 1014.09 1014.06 1014.05 1014.26 1014.34 1014.50 1014.68 1014.67 1014.64 1015.08 1015.26 1015.78 1016.43 1016.91 1017.20 1017.78 1018.13
1008.04 1008.37 1008.72 1009.15 1009.53 1009.84 1010.34 1010.63 1011.41 1012.12 1012.49 1012.95 1013.20 1013.47 1013.68 1013.54 1013.02 1013.01 1013.23 1013.57 1013.70 1013.88 1013.84 1014.04 1014.27 1014.65 1015.01 1015.62 1016.16 1016.64 1017.22 1017.57
1007.55 1007.71 1007.81 1007.85 1008.09 1008.48 1008.95 1009.39 1010.24 1010.36 1010.89 1011.42 1011.93 1011.89 1011.95 1011.73 1011.97 1012.18 1012.33 1012.61 1012.75 1012.91 1013.33 1013.48 1013.95 1014.21 1014.18 1014.76 1015.49 1015.82 1016.25 1016.86
1007.87 1007.87 1007.96 1007.92 1007.94 1007.94 1008.29 1008.53 1009.19 1009.52 1010.08 1010.55 1010.95 1011.33 1011.37 1011.70 1011.94 1011.99 1012.11 1012.41 1012.43 1012.50 1012.59 1012.88 1013.59 1014.52 1015.03 1014.59 1014.79 1015.26 1015.43 1016.11
1009.45 1009.27 1009.01 1008.67 1008.42 1008.14 1008.08 1008.47 1008.93 1009.38 1009.69 1010.08 1010.45 1010.78 1011.25 1011.52 1011.65 1011.74 1011.81 1011.96 1011.92 1011.84 1011.82 1012.07 1012.36 1012.75 1013.75 1014.63 1014.67 1014.64 1014.69 1014.52
1010.70 1010.35 1010.00 1009.67 1009.21 1008.96 1008.57 1008.48 1008.54 1008.87 1009.33 1009.71 1010.10 1010.47 1010.93 1011.17 1011.50 1011.69 1011.95 1012.07 1012.19 1012.09 1012.21 1012.08 1012.26 1012.71 1012.95 1013.77 1014.22 1013.93 1012.76 1013.67
1011.76 1011.48 1011.23 1010.58 1010.07 1009.80 1009.37 1008.90 1008.98 1009.34 1009.55 1009.84 1010.37 1010.83 1011.08 1011.32 1011.74 1011.86 1011.97 1012.20 1012.71 1012.78 1012.90 1012.74 1012.54 1013.04 1013.35 1013.48 1013.70 1013.76 1012.87 1013.33
1012.61 1012.46 1012.25 1011.82 1011.46 1011.16 1010.71 1010.11 1010.06 1010.04 1010.15 1010.38 1010.78 1011.31 1011.58 1011.87 1012.27 1012.52 1012.82 1013.10 1013.13 1013.06 1012.94 1012.92 1012.95 1012.99 1013.02 1013.18 1013.51 1013.44 1013.19 1013.91
1013.33 1013.23 1012.90 1012.41 1012.29 1012.07 1011.81 1011.81 1011.68 1011.45 1011.50 1011.59 1011.88 1012.23 1012.50 1012.81 1013.16 1013.07 1013.25 1013.30 1013.28 1013.06 1013.03 1013.32 1013.36 1013.42 1013.37 1013.52 1013.71 1013.71 1014.18 1014.88
1014.00 1013.87 1013.61 1012.92 1012.84 1012.96 1012.85 1012.58 1012.39 1012.35 1012.37 1012.53 1012.70 1013.00 1013.16 1013.27 1013.47 1013.47 1013.48 1013.54 1013.57 1013.72 1013.97 1014.06 1013.99 1014.16 1014.42 1014.55 1014.54 1014.82 1015.35 1015.84
1014.40 1014.21 1013.98 1013.69 1013.12 1013.58 1013.27 1013.11 1012.96 1012.99 1013.14 1013.19 1013.28 1013.42 1013.60 1013.68 1013.85 1013.90 1014.02 1014.16 1014.45 1014.65 1014.81 1014.72 1014.89 1015.03 1015.41 1015.20 1015.78 1015.75 1016.32 1016.21
Wind_Speed
17 17 17 18 15 12 13 12 11 11 9 7 5 5 5 6 7 6 4 3 3 3 3 3 3 5 4 4 4 3 4 3
17 17 17 17 17 15 15 14 12 11 7 7 7 6 6 6 7 7 5 4 4 3 3 3 4 3 5 5 4 4 5 5
16 17 16 15 16 16 16 15 13 11 11 8 8 8 7 8 7 8 6 5 4 4 3 4 3 3 3 4 5 4 5 6
16 16 16 16 15 16 16 16 14 12 12 12 9 8 8 7 7 8 9 6 5 5 5 5 5 4 5 5 4 4 4 5
18 18 16 17 16 14 17 16 14 14 14 11 9 8 8 8 8 9 10 9 8 7 6 6 6 5 6 6 6 5 5 5
18 17 17 16 14 15 14 13 15 15 13 10 9 8 8 8 8 8 11 11 9 8 7 7 6 5 5 6 5 5 6 5
18 17 16 16 15 13 13 14 16 16 14 10 10 9 8 8 8 8 10 11 11 9 8 8 7 6 7 7 6 6 6 6
18 18 16 15 13 13 12 11 13 12 9 9 8 9 9 9 9 9 11 10 12 10 9 10 8 8 8 7 7 5 6 7
13 14 15 14 13 13 14 14 14 11 10 9 10 12 11 10 11 14 14 13 13 12 10 11 10 10 10 7 1 3 3 8
9 10 13 16 16 15 15 15 13 13 10 8 7 7 9 10 10 12 15 15 14 13 13 11 11 10 9 7 4 4 2 2
11 11 12 13 15 16 15 16 15 14 14 9 7 6 4 7 11 12 13 15 15 14 14 13 11 10 9 10 7 7 4 4
12 11 12 14 16 15 16 16 16 16 17 14 15 12 12 11 10 9 10 13 14 13 13 11 10 8 10 9 8 6 6 8
9 8 9 10 11 10 13 14 15 15 15 16 14 14 11 8 6 8 8 8 9 10 10 9 8 6 9 9 11 9 7 8
12 11 10 11 11 9 6 9 10 12 14 16 14 14 12 8 6 5 5 5 6 8 9 8 9 8 8 7 7 6 8 8
15 15 14 13 14 13 10 4 7 10 12 12 14 13 12 11 7 5 5 4 4 7 8 7 4 4 6 7 7 12 12 10
14 14 14 15 16 16 15 11 5 2 5 7 8 9 5 5 4 4 3 2 5 8 5 7 4 5 4 6 5 6 7 2
13 13 13 12 13 14 14 14 9 6 5 5 5 5 6 6 6 3 3 5 5 5 6 3 4 4 3 3 2 2 6 5
12 12 12 13 12 11 12 13 13 13 11 9 7 8 7 5 2 1 4 4 4 6 7 5 2 2 3 5 6 8 9 7
11 11 11 12 13 13 12 12 13 11 10 9 9 6 4 3 4 4 5 8 9 10 9 8 10 10 9 9 9 10 10 7
9 10 10 11 13 13 13 13 12 10 9 9 7 6 6 6 7 8 9 9 10 10 9 11 11 10 8 10 9 8 7 8
Wind_Direction
180 187 190 191 193 195 198 193 192 192 192 188 192 193 190 198 200 199 187 199 191 197 180 165 163 163 166 182 181 219 246 249
187 192 194 193 195 197 196 201 197 200 196 197 199 199 196 200 202 205 206 216 219 232 232 207 199 191 174 186 199 212 240 244
193 196 196 198 201 201 203 199 202 199 206 203 207 208 204 205 203 208 212 217 233 248 258 260 262 258 241 217 198 205 220 230
193 200 200 203 205 205 204 206 204 202 209 212 210 212 211 212 211 214 214 223 230 244 251 258 260 256 260 259 255 251 231 238
203 204 207 207 209 202 204 204 202 208 212 214 218 220 216 219 224 220 223 223 222 238 247 255 257 259 264 263 260 250 245 237
210 211 215 215 218 207 205 202 202 208 215 215 221 223 224 226 226 225 227 232 233 235 245 254 263 255 253 258 257 249 236 229
217 217 219 223 221 216 210 206 210 208 212 219 224 225 230 232 234 234 230 232 236 239 245 254 257 261 255 260 248 249 237 240
216 219 224 228 227 226 226 215 218 210 208 212 225 229 229 230 232 234 234 231 231 233 243 252 247 246 247 249 258 248 287 284
217 221 222 227 229 223 219 214 207 195 202 211 224 226 221 225 227 226 226 226 228 227 240 239 234 237 236 241 215 49 325 309
244 218 213 217 220 215 215 218 210 207 211 220 225 218 230 231 228 231 229 229 229 230 230 234 233 230 219 197 161 143 180 194
254 238 223 219 222 219 215 211 205 208 214 209 211 211 222 222 226 230 228 228 231 232 231 236 227 221 206 192 184 180 169 197
277 254 243 236 228 222 210 206 199 206 197 206 211 215 217 229 237 236 229 221 226 228 236 237 236 223 206 192 182 191 170 216
355 346 332 316 304 258 223 212 205 207 202 207 208 217 230 235 230 232 221 230 228 232 233 241 243 240 241 209 189 189 201 224
29 28 21 16 13 356 285 233 220 216 210 210 211 221 220 220 218 215 200 204 206 207 202 186 195 197 224 226 218 202 211 216
32 27 24 22 20 9 2 320 223 206 207 208 209 212 209 211 210 215 204 204 222 225 214 218 220 195 180 198 210 221 208 226
33 29 26 26 23 18 8 354 330 237 195 197 199 186 181 188 187 183 196 238 7 11 311 280 203 193 236 238 211 239 262 201
33 31 26 26 24 22 24 27 48 70 100 131 141 148 135 124 124 108 50 7 353 354 9 41 77 51 78 102 261 256 82 58
41 40 32 38 41 36 43 52 53 60 64 74 81 90 92 91 81 346 1 7 16 8 5 25 19 316 59 43 40 49 75 71
38 36 35 42 49 45 51 55 55 57 57 58 63 64 42 23 26 31 19 19 31 50 54 53 58 55 65 72 69 70 70 75
38 41 38 39 46 35 39 42 49 50 55 59 60 69 63 60 53 55 76 76 73 73 65 65 57 64 52 69 61 67 67 72